Daviess Cnty AP, Washington,, IN

7:58 AM EST on November 17, 2019 (GMT -0500)
Daviess County

Weather History for KDCY - May, 2019

Change the Weather History Date:

Friday, May 31, 2019

  Actual Average (KLWV) Record (KLWV)
Temperature  
Mean Temperature 70 °F -  
Max Temperature 79 °F 74 °F 92 °F (2011)
Min Temperature 60 °F 56 °F 48 °F (2003)
Cooling Degree Days 4    
Growing Degree Days 20 (Base 50)    
Moisture  
Dew Point 59 °F    
Average Humidity 69    
Maximum Humidity 99    
Minimum Humidity 48    
Precipitation  
Precipitation 0.00 in - - ()
Sea Level Pressure  
Sea Level Pressure 29.90 in    
Wind  
Wind Speed 6 mph (West)    
Max Wind Speed 8 mph    
Max Gust Speed -    
Visibility 10 miles    
Events      
Averages and records for this station are not official NWS values.
T = Trace of Precipitation, MM = Missing Value Source: NWS Daily Summary

Daily Weather History Graph

Daily Weather History Graph

Search for Another Location

Airport or City:

Astronomy

May. 31, 2019 Rise Set
Actual Time 6:26 AM EDT 9:06 PM EDT
Civil Twilight 5:54 AM EDT 9:37 PM EDT
Nautical Twilight 5:16 AM EDT 10:16 PM EDT
Astronomical Twilight 4:32 AM EDT 11:00 PM EDT
Moon 4:57 AM EDT (5/31) 6:17 PM EDT (5/31)
Length of Visible Light 15h 42m
Length of Day
14h 40m
Waning Crescent, 9% of the Moon is Illuminated
May 31
Waning Crescent
Jun 3
New
Jun 10
First Quarter
Jun 17
Full
Jun 25
Last Quarter

Hourly Weather History & Observations

Time (EDT) Temp. Dew Point Humidity Pressure Visibility Wind Dir Wind Speed Gust Speed Precip Events Conditions
12:15 AM 69.8 °F 59.9 °F 71% 29.85 in 10.0 mi West 6.9 mph - N/A   Overcast
12:35 AM 69.8 °F 59.2 °F 69% 29.85 in 10.0 mi WNW 6.9 mph - N/A   Overcast
12:55 AM 68.5 °F 58.8 °F 71% 29.85 in 10.0 mi NW 6.9 mph - N/A   Mostly Cloudy
1:15 AM 68.9 °F 58.1 °F 68% 29.86 in 10.0 mi WNW 4.6 mph - N/A   Mostly Cloudy
1:35 AM 68.2 °F 58.5 °F 71% 29.86 in 10.0 mi West 6.9 mph - N/A   Overcast
1:55 AM 67.3 °F 59.5 °F 76% 29.86 in 10.0 mi West 4.6 mph - N/A   Overcast
2:15 AM 67.6 °F 58.3 °F 72% 29.86 in 10.0 mi West 6.9 mph - N/A   Overcast
2:35 AM 67.5 °F 57.6 °F 70% 29.86 in 10.0 mi West 5.8 mph - N/A   Overcast
2:55 AM 66.9 °F 58.1 °F 73% 29.86 in 10.0 mi West 4.6 mph - N/A   Overcast
3:15 AM 65.7 °F 58.6 °F 78% 29.86 in 10.0 mi West 4.6 mph - N/A   Mostly Cloudy
3:35 AM 63.7 °F 59.0 °F 85% 29.86 in 10.0 mi West 4.6 mph - N/A   Scattered Clouds
3:55 AM 63.1 °F 59.9 °F 89% 29.86 in 10.0 mi West 3.5 mph - N/A   Mostly Cloudy
4:15 AM 63.5 °F 59.5 °F 87% 29.87 in 10.0 mi West 4.6 mph - N/A   Overcast
4:35 AM 63.5 °F 59.2 °F 86% 29.86 in 10.0 mi West 4.6 mph - N/A   Overcast
4:55 AM 62.8 °F 58.1 °F 85% 29.87 in 10.0 mi West 5.8 mph - N/A   Scattered Clouds
5:15 AM 61.9 °F 57.9 °F 87% 29.87 in 10.0 mi West 5.8 mph - N/A   Clear
5:35 AM 61.5 °F 57.6 °F 87% 29.88 in 10.0 mi West 5.8 mph - N/A   Clear
5:55 AM 60.6 °F 57.6 °F 90% 29.88 in 10.0 mi West 5.8 mph - N/A   Clear
6:15 AM 60.8 °F 57.4 °F 88% 29.88 in 10.0 mi West 5.8 mph - N/A   Scattered Clouds
6:35 AM 61.2 °F 57.2 °F 87% 29.89 in 10.0 mi West 5.8 mph - N/A   Mostly Cloudy
6:55 AM 61.3 °F 57.2 °F 86% 29.89 in 10.0 mi West 5.8 mph - N/A   Scattered Clouds
7:15 AM 62.6 °F 57.4 °F 83% 29.89 in 10.0 mi West 3.5 mph - N/A   Clear
7:35 AM 63.9 °F 57.4 °F 79% 29.90 in 10.0 mi West 6.9 mph - N/A   Scattered Clouds
7:55 AM 65.1 °F 57.2 °F 75% 29.89 in 10.0 mi West 6.9 mph - N/A   Scattered Clouds
8:15 AM 66.2 °F 57.4 °F 73% 29.90 in 10.0 mi West 5.8 mph - N/A   Scattered Clouds
8:35 AM 67.1 °F 57.4 °F 71% 29.90 in 10.0 mi West 4.6 mph - N/A   Clear
8:55 AM 67.5 °F 57.7 °F 71% 29.90 in 10.0 mi West 4.6 mph - N/A   Scattered Clouds
9:15 AM 69.1 °F 58.6 °F 69% 29.91 in 10.0 mi WNW 5.8 mph - N/A   Clear
9:35 AM 69.8 °F 59.0 °F 68% 29.92 in 10.0 mi WNW 4.6 mph - N/A   Clear
9:55 AM 70.2 °F 58.6 °F 67% 29.92 in 10.0 mi NW 5.8 mph - N/A   Clear
10:15 AM 71.4 °F 59.0 °F 65% 29.92 in 10.0 mi West 6.9 mph - N/A   Scattered Clouds
10:35 AM 71.8 °F 59.0 °F 64% 29.93 in 10.0 mi West 6.9 mph - N/A   Clear
10:55 AM 72.7 °F 58.5 °F 61% 29.93 in 10.0 mi West 8.1 mph - N/A   Scattered Clouds
11:15 AM 73.2 °F 57.9 °F 59% 29.93 in 10.0 mi West 6.9 mph - N/A   Scattered Clouds
11:35 AM 73.9 °F 57.7 °F 57% 29.93 in 10.0 mi West 5.8 mph - N/A   Scattered Clouds
11:55 AM 74.1 °F 57.4 °F 56% 29.93 in 10.0 mi NW 5.8 mph - N/A   Mostly Cloudy
12:15 PM 74.3 °F 57.4 °F 55% 29.93 in 10.0 mi WSW 5.8 mph - N/A   Mostly Cloudy
12:35 PM 75.7 °F 58.3 °F 55% 29.94 in 10.0 mi West 6.9 mph - N/A   Scattered Clouds
12:55 PM 75.7 °F 57.2 °F 52% 29.94 in 10.0 mi WNW 6.9 mph - N/A   Clear
1:15 PM 76.1 °F 57.4 °F 52% 29.94 in 10.0 mi WNW 6.9 mph - N/A   Mostly Cloudy
1:35 PM 76.6 °F 57.0 °F 51% 29.93 in 10.0 mi West 6.9 mph - N/A   Scattered Clouds
1:50 PM 76.8 °F 56.8 °F 50% 29.92 in 10.0 mi NW 5.8 mph - N/A   Scattered Clouds
2:15 PM 76.8 °F 57.2 °F 51% 29.92 in 10.0 mi West 8.1 mph - N/A   Scattered Clouds
2:35 PM 77.5 °F 57.9 °F 51% 29.91 in 10.0 mi WNW 8.1 mph - N/A   Scattered Clouds
2:55 PM 77.0 °F 57.4 °F 51% 29.91 in 10.0 mi NW 8.1 mph - N/A   Scattered Clouds
3:15 PM 77.9 °F 57.4 °F 49% 29.91 in 10.0 mi NW 8.1 mph - N/A   Scattered Clouds
3:35 PM 79.0 °F 57.9 °F 48% 29.91 in 10.0 mi WNW 6.9 mph - N/A   Scattered Clouds
3:55 PM 77.7 °F 56.7 °F 48% 29.90 in 10.0 mi WNW 8.1 mph - N/A   Scattered Clouds
4:15 PM 77.9 °F 57.2 °F 49% 29.90 in 10.0 mi West 4.6 mph - N/A   Scattered Clouds
4:35 PM 78.1 °F 57.2 °F 49% 29.90 in 10.0 mi NW 5.8 mph - N/A   Scattered Clouds
4:55 PM 78.6 °F 58.3 °F 50% 29.90 in 10.0 mi WNW 6.9 mph - N/A   Mostly Cloudy
5:15 PM 78.6 °F 57.7 °F 49% 29.90 in 10.0 mi WNW 5.8 mph - N/A   Scattered Clouds
5:35 PM 77.4 °F 57.6 °F 50% 29.90 in 10.0 mi West 4.6 mph - N/A   Clear
5:55 PM 78.1 °F 57.7 °F 49% 29.90 in 10.0 mi West 4.6 mph - N/A   Scattered Clouds
6:15 PM 77.9 °F 58.1 °F 50% 29.89 in 10.0 mi WNW 5.8 mph - N/A   Scattered Clouds
6:35 PM 77.4 °F 58.3 °F 52% 29.89 in 10.0 mi WNW 4.6 mph - N/A   Clear
6:55 PM 77.2 °F 59.5 °F 54% 29.89 in 10.0 mi West 4.6 mph - N/A   Clear
7:15 PM 76.6 °F 59.0 °F 54% 29.89 in 10.0 mi WNW 5.8 mph - N/A   Clear
7:35 PM 76.1 °F 59.5 °F 56% 29.90 in 10.0 mi West 4.6 mph - N/A   Clear
7:55 PM 75.2 °F 59.0 °F 57% 29.90 in 10.0 mi West 3.5 mph - N/A   Clear
8:15 PM 74.3 °F 60.3 °F 61% 29.90 in 10.0 mi WNW 3.5 mph - N/A   Clear
8:35 PM 71.6 °F 63.7 °F 76% 29.90 in 10.0 mi Calm Calm - N/A   Clear
8:55 PM 69.4 °F 66.0 °F 89% 29.90 in 10.0 mi Calm Calm - N/A   Clear
9:15 PM 68.0 °F 66.4 °F 95% 29.90 in 10.0 mi Calm Calm - N/A   Clear
9:35 PM 66.6 °F 66.2 °F 99% 29.90 in 10.0 mi West 3.5 mph - N/A   Clear
9:55 PM 65.8 °F 64.8 °F 96% 29.91 in 10.0 mi WSW 3.5 mph - N/A   Clear
10:15 PM 66.0 °F 63.7 °F 92% 29.91 in 10.0 mi West 4.6 mph - N/A   Clear
10:35 PM 66.2 °F 62.1 °F 86% 29.91 in 10.0 mi West 3.5 mph - N/A   Clear
10:55 PM 65.7 °F 62.8 °F 90% 29.92 in 10.0 mi Calm Calm - N/A   Clear
11:15 PM 66.2 °F 62.8 °F 89% 29.92 in 10.0 mi Calm Calm - N/A   Clear
11:35 PM 65.5 °F 60.4 °F 84% 29.92 in 10.0 mi West 5.8 mph - N/A   Clear
11:55 PM 65.7 °F 60.8 °F 84% 29.92 in 10.0 mi Calm Calm - N/A   Clear